Flag for Denmark Weather past 2 weeks in Odense, Denmark

Now
48 °F

Cool.


Feels Like: 42 °F
Forecast: 48 / 58 °F
Wind: 15 mph from Southwest

Location: Vamdrup

Current Time: May 31, 2015 at 1:31:50 AM

Latest Report: May 31, 2015 at 12:50 AM


Visibility: N/A

Pressure: 29.83 "Hg

Humidity: 76%

Dew point: 41 °F

Location of OdenseLocation

Historic Weather in Odense — Graph

°F

Odense temperature yesterday

Maximum temperature yesterday: 55 °F (at 1:50 PM)
Minimum temperature yesterday: 45 °F (at 4:50 AM)
Average temperature yesterday: 50 °F

Past Weeks' High & Low Weather Summary

 TemperatureHumidityPressure
High63 °F (May 22, 3:50 PM)100% (May 18, 9:50 PM)30.24 "Hg (May 18, 9:50 PM)
Low41 °F (May 20, 2:20 AM)51% (May 25, 1:50 PM)29.45 "Hg (May 19, 12:50 AM)
Average49 °F80%29.91 "Hg
* Reported May 16 12:20 AM — May 31 12:20 AM, Odense, Weather by CustomWeather, © 2015

Note: Actual official high and low records may vary slightly from our data, if they occured in-between our weather recording intervals... More about our weather records

Advertising

Odense weather history for previous 24 hours

 ConditionsComfort  
Time TempWeatherWind HumidityBarometerVisibility
12:20 AM
Sun, May 31
48 °FCool.17 mph76%29.83 "HgN/A
11:20 PM
Sat, May 30
48 °FCool.16 mph71%29.83 "HgN/A
10:50 PM48 °FCool.16 mph71%29.83 "HgN/A
10:20 PM48 °FCool.16 mph76%29.83 "HgN/A
9:50 PM48 °FCool.13 mph76%29.83 "HgN/A
9:20 PM48 °FCool.14 mph76%29.80 "HgN/A
8:50 PM50 °FCool.17 mph71%29.80 "HgN/A
8:20 PM50 °FCool.18 mph71%29.80 "HgN/A
7:50 PM52 °FCool.13 mph72%29.80 "HgN/A
7:20 PM50 °FCool.16 mph71%29.80 "HgN/A
6:50 PM52 °FCool.18 mph67%29.80 "HgN/A
6:20 PM54 °FCool.18 mph58%29.80 "HgN/A
5:50 PM54 °FCool.18 mph58%29.80 "HgN/A
5:20 PM54 °FCool.17 mph63%29.77 "HgN/A
4:50 PM54 °FCool.20 mph63%29.77 "HgN/A
4:20 PM55 °FRefreshingly cool.18 mph55%29.77 "HgN/A
3:50 PM54 °FCool.17 mph58%29.74 "HgN/A
3:20 PM55 °FRefreshingly cool.18 mph55%29.74 "HgN/A
2:50 PM55 °FRefreshingly cool.18 mph55%29.74 "HgN/A
2:20 PM55 °FCool.20 mph63%29.71 "HgN/A
1:50 PM55 °FRefreshingly cool.17 mph59%29.71 "HgN/A
1:20 PM54 °FCool.18 mph58%29.71 "HgN/A
12:50 PM50 °FCool.18 mph71%29.68 "HgN/A
12:20 PM50 °FCool.22 mph71%29.68 "HgN/A
11:50 AM52 °FCool.15 mph72%29.68 "HgN/A
11:20 AM48 °FCool.18 mph76%29.68 "HgN/A
10:50 AM50 °FCool.17 mph71%29.65 "HgN/A
10:20 AM52 °FCool.16 mph72%29.65 "HgN/A
9:50 AM48 °FCool.18 mph82%29.65 "HgN/A
9:20 AM48 °FCool.16 mph82%29.62 "HgN/A
8:50 AM46 °FCool.14 mph93%29.62 "HgN/A
8:20 AM46 °FCool.14 mph93%29.59 "HgN/A
7:50 AM46 °FCool.17 mph87%29.56 "HgN/A
7:20 AM46 °FCool.15 mph93%29.56 "HgN/A
6:50 AM46 °FCool.12 mph87%29.56 "HgN/A
6:20 AM45 °FQuite cool.14 mph93%29.53 "HgN/A
5:20 AM45 °FQuite cool.16 mph93%29.50 "HgN/A
4:50 AM45 °FQuite cool.16 mph93%29.50 "HgN/A
4:20 AM46 °FCool.13 mph87%29.47 "HgN/A
3:50 AM48 °FCool.16 mph94%29.47 "HgN/A
3:20 AM48 °FCool.10 mph94%29.45 "HgN/A
2:50 AM48 °FCool.10 mph94%29.47 "HgN/A
2:20 AM48 °FCool.12 mph94%29.47 "HgN/A
1:50 AM48 °FCool.12 mph94%29.47 "HgN/A
1:20 AM48 °FCool.15 mph94%29.50 "HgN/A
Weather by CustomWeather, © 2015

See weather overviewHow to use our weather pages